User: anonymous
Location: Unspecified
(0.0000°N, 0.0000°E)
Time: 21:18:07
(UTC+02:00)
Language:

ADEOS II - Orbit

View from above orbital plane
View from above orbital plane
View from above satellite
View from above satellite

Ground track
Ground track

The orbit data is extracted from the following two-line orbital elements,

1 27597U 02056A   14114.07964931  .00000398  00000-0  18110-3 0  2833
2 27597 098.2750 124.9179 0002303 111.6873 285.0125 14.26781427591371
Epoch (UTC): 24 April 2014 01:54:41
Eccentricity: 0.0002303
inclination: 98.2750°
perigee height: 801 km
apogee height: 804 km
right ascension of ascending node: 124.9179°
argument of perigee: 111.6873°
revolutions per day: 14.26781427
mean anomaly at epoch: 285.0125°
orbit number at epoch: 59137

The dashed part of the orbit path shows where the satellite is in the earth's shadow,  

DLR